Location: Tarnówko
(53.5053°N, 14.9112°E)
Time: 01:19:06
(UTC+00:00)

Daily predictions for brighter satellites

Satellite Brightness Start Highest point End
(mag) Time Altitude Azimuth Time Altitude Azimuth Time Altitude Azimuth
USA 32 4.0 00:02:27 20° S 00:06:07 90° SSW 00:11:26 10° N
SL-16 R/B 3.5 00:02:19 13° SSE 00:06:25 29° ESE 00:11:12 10° NE
SL-16 R/B 3.1 00:02:30 10° SE 00:08:35 59° ENE 00:14:43 10° NNW
USA 306 3.3 00:07:12 23° SSW 00:09:19 41° SSE 00:13:15 10° E
Cosmos 2322 Rocket 4.4 00:05:02 10° W 00:09:21 22° NNW 00:13:42 10° NNE
Lacrosse 5 3.3 00:07:00 17° S 00:09:27 24° SE 00:13:32 10° ENE
Cosmos 1980 3.7 00:06:08 20° SSW 00:10:08 77° ESE 00:15:49 10° NE
Cosmos 371 Rocket 3.3 00:06:52 21° SSW 00:10:11 85° WNW 00:15:05 10° NNE
Meteor 2-10 Rocket 3.7 00:06:58 10° NNW 00:12:39 70° W 00:16:52 17° S
USA 307 3.4 00:11:14 23° SSW 00:13:20 40° SSE 00:17:16 10° E
Cosmos 2333 Rocket 3.5 00:08:24 10° WSW 00:13:36 36° NW 00:18:51 10° NNE
Cosmos 1709 Rocket 4.1 00:08:54 10° NNW 00:14:57 61° W 00:19:32 18° S
Cosmos 1269 Rocket 4.0 00:09:44 10° NNW 00:15:03 83° WSW 00:20:15 10° SSE
Cosmos 304 Rocket 3.8 00:15:45 20° SSW 00:19:03 78° ESE 00:23:54 10° NNE
USA 267 4.2 00:17:02 18° SSW 00:20:14 25° SW 00:25:28 10° WNW
Cosmos 2084 Rocket 4.2 00:19:40 20° S 00:21:35 31° SE 00:24:59 10° ENE
Cosmos 2184 Rocket 4.3 00:17:08 10° N 00:23:24 67° ENE 00:29:35 10° SSE
Cosmos 2315 Rocket 4.1 00:18:32 18° SSW 00:23:30 82° W 00:29:56 10° N
ATLAS 2AS CENTAUR R/B 4.4 00:21:53 10° WNW 00:28:52 38° N 00:35:28 10° ENE
Meteor 1-24 Rocket 4.0 00:25:27 14° S 00:30:07 61° E 00:35:28 10° NNE
Cosmos 1455 2.6 00:26:32 10° N 00:30:12 57° ENE 00:33:50 10° SSE
COSMOS 2455 4.3 00:25:39 10° SSE 00:30:30 26° ESE 00:35:21 10° NE
Cosmos 2219 Rocket 3.5 00:27:37 10° WSW 00:32:41 34° NW 00:37:46 10° NNE
CZ-2D R/B 2.6 00:30:54 10° NNE 00:36:14 57° ESE 00:40:53 13° S
Cosmos 2150 Rocket 4.4 00:32:32 15° SW 00:36:44 55° WNW 00:41:49 10° NNE
Cosmos 1271 Rocket 3.8 00:34:13 10° N 00:37:53 43° ENE 00:41:34 10° SE
MOZ.5/SAFIR/RUBIN 5/SL-8 4.2 00:34:54 17° SSW 00:38:15 47° W 00:42:52 10° NNW
Cosmos 1455 Rocket 3.4 00:34:54 10° NNW 00:39:14 51° W 00:42:27 17° SSW
Cosmos 1300 4.1 00:38:50 10° NNW 00:41:58 25° W 00:43:56 16° SW
USA 308 3.0 00:40:45 16° SW 00:43:56 55° SSE 00:48:02 10° ENE
Cosmos 1125 Rocket 4.2 00:43:32 13° SW 00:48:03 45° NW 00:53:05 10° NNE
NOSS 0 Rocket 4.4 00:45:01 12° SW 00:50:50 59° NW 00:57:02 10° NNE
Cosmos 1536 Rocket 4.4 00:48:11 10° SSE 00:52:25 46° E 00:56:37 10° NNE
SAR-Lupe-2 4.5 00:51:31 10° NNE 00:54:59 43° E 00:58:15 11° S
Meteor 2-5 Rocket 3.8 00:50:14 15° SSW 00:55:09 81° WNW 01:00:51 10° NNE
CZ-4C R/B 4.5 00:51:11 10° WNW 00:55:35 17° WSW 00:59:24 12° SW
ERBS 2.0 00:55:13 17° SW 00:57:25 68° SSE 01:00:29 10° ENE
Cosmos 1975 Rocket 3.5 00:56:40 15° SSW 01:00:08 52° WNW 01:04:32 10° N
Cosmos 2237 Rocket 2.7 00:56:44 12° SW 01:01:58 57° NW 01:07:37 10° NNE
Nadezhda 1 Rocket 4.4 00:55:49 10° S 01:02:03 62° E 01:08:14 10° NNE
Resurs 1-4 Rocket 2.1 00:56:51 10° NNE 01:02:10 89° ESE 01:07:01 12° SSW
Genesis I 3.9 00:58:40 10° NW 01:02:45 61° NE 01:06:44 10° ESE
Cosmos 1025 Rocket 3.3 01:00:08 15° SSW 01:03:35 57° WNW 01:07:50 10° N
SME Rocket 4.3 01:03:28 15° SSW 01:06:30 33° W 01:11:24 10° NNW
COSMOS 2428 4.2 01:01:39 10° W 01:06:37 30° NW 01:11:35 10° NNE
USA 305 2.8 01:02:30 10° WSW 01:06:40 73° SSE 01:10:51 10° ENE
Gblst 52 Del rocket 4.1 01:02:37 10° W 01:08:28 71° S 01:13:57 10° ESE
CZ-4 R/B 3.8 01:04:18 10° NNE 01:08:59 81° WNW 01:13:13 12° SSW
Cosmos 332 Rocket 4.3 01:08:19 12° SW 01:12:35 49° WNW 01:17:16 10° NNE
Cosmos 1943 Rocket 2.7 01:07:54 10° NW 01:13:11 40° WSW 01:18:24 10° S
YAOGAN 11 4.3 01:10:09 10° S 01:14:33 61° WSW 01:19:04 10° NNW
IDEFIX/ARIANE 42P 3.1 01:09:56 10° NNE 01:15:09 57° E 01:20:20 10° S
ADEOS II 2.4 01:10:46 10° NNE 01:16:02 68° ESE 01:21:16 10° S
Lacrosse 5 rocket 2.1 01:14:37 13° SSW 01:17:41 36° SE 01:21:28 10° ENE
Cosmos 614 Rocket 4.1 01:13:09 10° NNW 01:18:15 57° WSW 01:23:20 10° S
Cosmos 2297 4.1 01:13:34 10° NW 01:19:02 45° WSW 01:24:28 10° S
Thor Agena Rocket 4.3 01:14:23 10° N 01:19:22 43° WNW 01:24:18 10° SW
Cosmos 2263 4.3 01:13:56 10° NNW 01:19:38 84° ENE 01:25:22 10° SSE
UNK 4.0 01:15:54 10° S 01:20:23 52° W 01:24:55 10° NNW
USA 215 3.7 01:18:15 10° ENE 01:24:45 68° N 01:31:14 10° W
Cosmos 1544 Rocket 4.4 01:21:39 10° NNW 01:25:39 34° W 01:29:32 10° SSW
Cosmos 2341 Rocket 4.4 01:21:27 10° N 01:27:50 71° ENE 01:34:14 10° SSE
Cosmos 2278 Rocket 4.3 01:27:41 10° W 01:27:54 10° W 01:28:07 10° W
Cosmos 1703 3.6 01:25:13 10° S 01:29:07 67° E 01:33:02 10° NNE
Cosmos 2251 Rocket 3.5 01:24:01 10° NNW 01:29:17 72° WSW 01:34:32 10° SSE
Cosmos 2154 Rocket 4.2 01:23:36 10° NNW 01:29:53 63° W 01:36:06 10° S
Helios 1A 3.0 01:26:35 10° S 01:30:46 64° WSW 01:34:59 10° NNW
EO 1 Del DPAF 3.2 01:28:53 10° NNE 01:32:24 71° ESE 01:35:54 10° S
NPP 3.9 01:30:38 10° N 01:35:59 64° WNW 01:41:18 10° SSW
MOS 1 Rocket 3.6 01:33:45 10° SSW 01:37:47 40° W 01:41:55 10° NNW
Cosmos 2369 Rocket 2.3 01:36:58 10° NW 01:42:27 56° WSW 01:47:53 10° S
Cosmos 1656 Rocket 3.6 01:40:32 10° NW 01:45:54 63° WSW 01:51:14 10° SSE
MOS 1-B Rocket 4.2 01:40:55 10° SSE 01:46:29 74° ENE 01:52:26 10° NNW
CZ-2C R/B 4.4 01:44:20 10° NE 01:48:42 27° E 01:52:57 10° SSE
USA 306 2.9 01:44:31 10° W 01:48:42 90° NE 01:52:54 10° E
SL-16 R/B 2.5 01:44:31 10° SW 01:50:10 65° NW 01:55:51 10° NNE
Cosmos 1726 Rocket 3.7 01:45:51 10° N 01:50:19 85° E 01:54:43 10° SSE
Meteor 1-28 Rocket 4.0 01:47:22 10° SSW 01:50:48 34° W 01:54:15 10° NNW
Lacrosse 5 1.9 01:46:45 10° SW 01:51:52 77° SSE 01:56:59 10° ENE
SL-16 R/B 3.3 01:46:59 10° SSW 01:52:32 33° W 01:58:08 10° NNW
USA 307 2.9 01:48:33 10° WSW 01:52:45 89° S 01:56:58 10° E
Meteor 1-21 Rocket 4.4 01:47:26 10° S 01:53:03 78° E 01:58:37 10° NNE
